Weather History for KCHA - October, 2012

Change the Weather History Date:

Tuesday, October 2, 2012

  Actual Average Record
Temperature  
Mean Temperature 69 °F 66 °F  
Max Temperature 75 °F 78 °F 92 °F (1954)
Min Temperature 62 °F 55 °F 36 °F (1984)
Degree Days  
Heating Degree Days 0 2  
Month to date heating degree days 0 4  
Since 1 July heating degree days 6 19  
Cooling Degree Days 4 3  
Month to date cooling degree days 7 7  
Year to date cooling degree days 2010 1696  
Growing Degree Days 18 (Base 50)    
Moisture  
Dew Point 64 °F    
Average Humidity 82    
Maximum Humidity 100    
Minimum Humidity 64    
Precipitation  
Precipitation 0.05 in 0.11 in 1.41 in (1925)
Month to date precipitation 2.60 0.23  
Year to date precipitation 41.01 39.53  
Snow  
Snow 0.00 in 0.00 in - ()
Month to date snowfall 0.0 0.0  
Since 1 July snowfall 0.0 0.0  
Since 1 September snowfall 0.0 0.0  
Snow Depth 0.00 in    
Sea Level Pressure  
Sea Level Pressure 29.77 in    
Wind  
Wind Speed 5 mph (South)    
Max Wind Speed 14 mph    
Max Gust Speed 18 mph    
Visibility 8 miles    
Events Fog , Rain    
T = Trace of Precipitation, MM = Missing Value Source: NWS Daily Summary

Daily Weather History Graph

Daily Weather History Graph

Search for Another Location

Airport or City:

Trip Planner

Search our weather history database for the weather conditions in past years. The results will help you decide how hot, cold, wet, or windy it might be!

Date:

Astronomy

Oct. 02, 2012 Rise Set
Actual Time 7:36 AM EDT 7:22 PM EDT
Civil Twilight 7:11 AM EDT 7:47 PM EDT
Nautical Twilight 6:42 AM EDT 8:17 PM EDT
Astronomical Twilight 6:12 AM EDT 8:46 PM EDT
Moon 8:43 PM EDT (10/2) 9:55 AM EDT (10/2)
Length of Visible Light 12h 36m
Length of Day
11h 45m
Waning Gibbous, 94% of the Moon is Illuminated
Oct 2
Waning Gibbous
Oct 8
Last Quarter
Oct 15
New
Oct 21
First Quarter
Oct 29
Full

Hourly Weather History & Observations

Time (EDT) Temp. Dew Point Humidity Pressure Visibility Wind Dir Wind Speed Gust Speed Precip Events Conditions
12:44 AM 73.4 °F 69.8 °F 88% 29.64 in 10.0 mi South 4.6 mph - N/A   Mostly Cloudy
12:53 AM 73.0 °F 69.1 °F 87% 29.63 in 10.0 mi South 3.5 mph - N/A   Overcast
1:24 AM 71.6 °F 69.8 °F 94% 29.64 in 10.0 mi Calm Calm - 0.00 in Rain Light Rain
1:37 AM 71.6 °F 69.8 °F 94% 29.64 in 10.0 mi WNW 4.6 mph - 0.00 in Rain Light Rain
1:53 AM 71.1 °F 66.9 °F 87% 29.63 in 10.0 mi Calm Calm - 0.00 in   Overcast
2:53 AM 70.0 °F 66.9 °F 90% 29.63 in 10.0 mi Calm Calm - 0.01 in Rain Light Rain
3:50 AM 69.8 °F 66.2 °F 88% 29.67 in 10.0 mi South 3.5 mph - 0.00 in   Mostly Cloudy
3:53 AM 69.1 °F 66.9 °F 93% 29.65 in 10.0 mi SSE 3.5 mph - 0.00 in   Mostly Cloudy
4:53 AM 68.0 °F 66.0 °F 93% 29.65 in 10.0 mi South 3.5 mph - N/A   Mostly Cloudy
5:53 AM 68.0 °F 66.0 °F 93% 29.66 in 10.0 mi South 3.5 mph - 0.01 in   Mostly Cloudy
6:53 AM 66.9 °F 66.0 °F 97% 29.68 in 1.5 mi SSE 5.8 mph - N/A   Mostly Cloudy
7:05 AM 66.2 °F 64.4 °F 94% 29.70 in 5.0 mi SSW 4.6 mph - N/A   Mostly Cloudy
7:53 AM 66.9 °F 64.9 °F 93% 29.70 in 8.0 mi South 4.6 mph - N/A Fog Patches of Fog
8:03 AM 66.2 °F 64.4 °F 94% 29.73 in 9.0 mi South 3.5 mph - N/A Fog Patches of Fog
8:29 AM 66.2 °F 62.6 °F 88% 29.74 in 10.0 mi SSW 6.9 mph - N/A   Overcast
8:53 AM 66.2 °F 62.6 °F 88% 29.75 in 10.0 mi South 8.1 mph - N/A   Overcast
9:53 AM 66.9 °F 61.0 °F 81% 29.75 in 10.0 mi South 8.1 mph - N/A   Overcast
10:50 AM 68.0 °F 62.6 °F 83% 29.80 in 10.0 mi South 9.2 mph - 0.00 in Rain Light Rain
10:53 AM 68.0 °F 61.0 °F 78% 29.78 in 10.0 mi South 10.4 mph - 0.00 in Rain Light Rain
11:53 AM 70.0 °F 61.0 °F 73% 29.79 in 10.0 mi SSE 8.1 mph - 0.00 in   Overcast
12:26 PM 71.6 °F 60.8 °F 69% 29.80 in 10.0 mi South 6.9 mph - N/A   Mostly Cloudy
12:53 PM 72.0 °F 60.1 °F 66% 29.79 in 10.0 mi South 10.4 mph - N/A   Mostly Cloudy
1:53 PM 73.0 °F 61.0 °F 66% 29.79 in 10.0 mi South 15.0 mph 18.4 mph N/A   Mostly Cloudy
2:53 PM 70.0 °F 60.1 °F 71% 29.80 in 10.0 mi South 9.2 mph - N/A   Overcast
3:29 PM 66.2 °F 62.6 °F 88% 29.83 in 1.5 mi WSW 10.4 mph - 0.00 in Rain Light Rain
3:53 PM 64.9 °F 63.0 °F 93% 29.83 in 1.8 mi SW 5.8 mph - 0.01 in Rain Light Rain
4:53 PM 64.9 °F 62.1 °F 90% 29.85 in 1.8 mi SSW 9.2 mph - 0.00 in Rain Light Rain
5:53 PM 64.9 °F 62.1 °F 90% 29.86 in 1.8 mi South 5.8 mph - 0.00 in Rain Light Rain
6:53 PM 64.0 °F 61.0 °F 90% 29.89 in 3.0 mi Calm Calm - 0.03 in Rain Light Rain
7:53 PM 64.0 °F 61.0 °F 90% 29.91 in 10.0 mi Calm Calm - 0.00 in Rain Light Rain
8:53 PM 64.0 °F 60.1 °F 87% 29.94 in 10.0 mi Calm Calm - 0.00 in   Overcast
9:53 PM 64.0 °F 60.1 °F 87% 29.97 in 10.0 mi Calm Calm - N/A   Overcast
10:53 PM 64.0 °F 60.1 °F 87% 29.99 in 10.0 mi Calm Calm - N/A   Overcast
11:30 PM 62.6 °F 60.8 °F 94% 30.00 in 10.0 mi SSE 3.5 mph - N/A   Mostly Cloudy
11:53 PM 63.0 °F 60.1 °F 90% 29.99 in 10.0 mi Calm Calm - N/A   Mostly Cloudy